Regional Weather Roundup
Issued by NWS

Home | Current Version | Previous Version | Graphics & Text | Print | Product List | Glossary On
Versions: 1 2 3 4 5 6 7 8 9 10 11 12 13 14 15 16 17 18 19 20 21 22 23 24 25 26 27 28 29 30 31 32 33 34 35 36 37 38 39 40 41 42 43 44 45 46 47 48 49 50
000
ASUS43 KDMX 311507
RWRIA

WEATHER ROUNDUP FOR IOWA
NATIONAL WEATHER SERVICE DES MOINES IA
1000 AM CDT THU JUL 31 2014

NOTE: "FAIR" INDICATES FEW OR NO CLOUDS BELOW 12,000 FEET WITH NO
SIGNIFICANT WEATHER AND/OR OBSTRUCTIONS TO VISIBILITY.

* - THESE STATIONS ARE NOT NWS STATIONS...THUS NOT UNDER NWS
QUALITY CONTROL.  THEY ALSO DO NOT REPORT WEATHER SUCH
AS PRECIPITATION OR FOG.

IAZ001>003-012>014-020>022-031>034-043>046-311600-
   NORTHWEST IOWA

CITY           SKY/WX    TMP DP  RH WIND       PRES   REMARKS
CARROLL *      SUNNY     73  59  60 VRB3      30.11S
CHEROKEE *     SUNNY     70  61  73 SW3       30.11S
DENISON *      SUNNY     70  61  73 W5        30.10S
LE MARS *      MOSUNNY   70  61  73 VRB6      30.10S
ORANGE CITY *  SUNNY     72  61  68 W6        30.10S
SHELDON *      SUNNY     72  57  60 VRB5      30.09S
SIOUX CITY     CLOUDY    67  60  78 CALM      30.10S
SPENCER        SUNNY     71  59  65 W5        30.10S
STORM LAKE *   SUNNY     72  61  68 W6        30.12S
$$

IAZ055>058-069>071-079>083-090>094-311600-
   SOUTHWEST IOWA

CITY           SKY/WX    TMP DP  RH WIND       PRES   REMARKS
ATLANTIC *     SUNNY     72  61  68 CALM      30.11F
AUDUBON *      SUNNY     73  63  68 SW3       30.12F
CLARINDA *     SUNNY     70  61  73 CALM      30.14S
COUNCIL BLFS * MOSUNNY   73  59  60 SW7       30.11S
CRESTON *      SUNNY     72  59  64 SW6       30.13S
HARLAN  *      MOSUNNY   68  61  77 CALM      30.15F
LAMONI         SUNNY     74  61  63 SW3       30.12S
RED OAK *      MOSUNNY   72  61  68 CALM      30.12F
SHENANDOAH *   SUNNY     72  57  60 CALM      30.13S
$$

IAZ047>049-059>061-072>074-084-311600-
   CENTRAL IOWA

CITY           SKY/WX    TMP DP  RH WIND       PRES   REMARKS
AMES           SUNNY     73  59  61 VRB3      30.10S
ANKENY *       SUNNY     73  61  64 CALM      30.11S
CHARITON *     SUNNY     72  59  64 W5        30.12R
DES MOINES     SUNNY     73  60  63 W5        30.10S
GRINNELL*      SUNNY     72  59  64 W3        30.11S
KNOXVILLE *    SUNNY     72  59  64 W5        30.10R
MARSHALLTOWN   SUNNY     72  62  71 W3        30.09F
PELLA *        SUNNY     75  61  60 W3        30.11S
PERRY *          N/A     70  61  73 CALM      30.11S
$$

IAZ004>006-015-016-023>025-035-036-311600-
   NORTH CENTRAL IOWA

CITY           SKY/WX    TMP DP  RH WIND       PRES   REMARKS
ALGONA *       SUNNY     73  59  60 W8        30.10S
CLARION *      MOSUNNY   72  57  60 W8        30.10S
ESTHERVILLE    SUNNY     72  58  61 W7        30.09F
FORT DODGE *   MOSUNNY   72  61  68 W3        30.11F
MASON CITY     SUNNY     73  57  57 W6        30.10S
FOREST CITY *  MOSUNNY   72  61  68 W5        30.09F
IOWA FALLS *     N/A     73  59  60 W7        30.11S
$$

IAZ007>011-017>019-026>030-037>042-050>054-066-311600-
   NORTHEAST IOWA

CITY           SKY/WX    TMP DP  RH WIND       PRES   REMARKS
CEDAR RAPIDS   SUNNY     72  63  73 W5        30.09S
CHARLES CITY * SUNNY     72  61  68 NW6       30.09F
CLINTON *      SUNNY     70  63  78 W3        30.11R
DECORAH *      SUNNY     70  61  73 W6        30.07S
DUBUQUE        SUNNY     72  61  68 W9        30.08S
MONTICELLO *   SUNNY     73  64  73 W7        30.08S
OELWEIN *      SUNNY     72  61  68 W7        30.10S
WATERLOO       SUNNY     73  59  61 VRB5      30.08S
$$

IAZ064-065-067-068-078-311600-
   EAST CENTRAL IOWA

CITY           SKY/WX    TMP DP  RH WIND       PRES   REMARKS
DAVENPORT      SUNNY     72  62  71 W5        30.09S
IOWA CITY      SUNNY     74  63  68 VRB5      30.10S
MT. PLEASANT * SUNNY     75  61  60 N3        30.10S
MUSCATINE *    SUNNY     73  63  68 VRB6      30.09S
QUAD CITIES    SUNNY     74  62  66 W3        30.08S
$$

IAZ062-063-075>077-085>089-095>099-311600-
   SOUTHEAST IOWA

CITY           SKY/WX    TMP DP  RH WIND       PRES   REMARKS
BURLINGTON     SUNNY     73  64  73 CALM      30.09S
FAIRFIELD *    SUNNY     72  63  73 CALM      30.10S
FORT MADISON * SUNNY     73  64  73 W3        30.11S
KEOKUK *       SUNNY     72  63  73 W3        30.10S
OSKALOOSA *      N/A     72  63  73 CALM      30.11S
CENTERVILLE *  SUNNY     73  64  73 W3        30.13S
OTTUMWA        SUNNY     72  60  66 W6        30.09S
WASHINGTON *   SUNNY     73  64  73 W5        30.10S
$$

ABBREVIATIONS USED IN REMARKS
   TC - TEMPERATURES IN CELSIUS
  WCI - WIND CHILL INDEX
   HX - HEAT INDEX
  VSB - VISIBILITY
$$



USA.gov is the U.S. government's official web portal to all federal, state and local government web resources and services.